Location: Shenandoah County Park
(38.9356°N, 78.4524°W)
Time: 14:05:09
(UTC-05:00)

Vanguard 2 Rocket - Pass Details

Date: 11 December 2023
Orbit: 555 x 3309 km, 32.9° (Epoch: 03 March)

Event Time Altitude Azimuth Distance (km) Brightness Sun altitude
Rises 17:15:01 0° 277° (W) 6,630 12.4 -4.8°
Reaches altitude 10° 17:19:08 10° 274° (W) 5,851 12.1 -5.6°
Maximum altitude 17:37:59 60° 201° (SSW) 3,606 10.1 -8.9°
Drops below altitude 10° 17:55:47 10° 128° (SE) 5,547 10.6 -12.1°
Sets 17:59:35 0° 124° (SE) 6,283 10.8 -12.8°
